Time,TemperatureF,DewpointF,PressureIn,WindDirection,WindDirectionDegrees,WindSpeedMPH,WindSpeedGustMPH,Humidity,HourlyPrecipIn,Conditions,Clouds,dailyrainin,SoftwareType,DateUTC
2013-07-27 00:02:00,85.0,-99.9,29.96,SSW,210,5.0,7.0,-999,-99.99,,,-99.99,,2013-07-27 05:02:00,
2013-07-27 00:12:00,85.0,-99.9,29.96,SSW,194,6.0,8.0,-999,-99.99,,,-99.99,,2013-07-27 05:12:00,
2013-07-27 00:33:00,85.0,-99.9,29.96,SSW,208,6.0,9.0,-999,-99.99,,,-99.99,,2013-07-27 05:33:00,
2013-07-27 00:43:00,85.0,-99.9,29.96,SW,214,6.0,9.0,-999,-99.99,,,-99.99,,2013-07-27 05:43:00,
2013-07-27 00:52:00,85.0,-99.9,29.96,SSW,211,6.0,9.0,-999,-99.99,,,-99.99,,2013-07-27 05:52:00,
2013-07-27 01:03:00,85.0,-99.9,29.96,SW,217,6.0,9.0,-999,-99.99,,,-99.99,,2013-07-27 06:03:00,
2013-07-27 01:12:00,85.0,-99.9,29.95,SSW,210,6.0,11.0,-999,-99.99,,,-99.99,,2013-07-27 06:12:00,
2013-07-27 01:22:00,85.0,-99.9,29.96,North,-999,-999.0,-999.0,-999,-99.99,,,-99.99,,2013-07-27 06:22:00,
2013-07-27 01:33:00,85.0,-99.9,29.95,SW,217,6.0,8.0,-999,-99.99,,,-99.99,,2013-07-27 06:33:00,
2013-07-27 01:43:00,85.0,-99.9,29.96,SSW,213,7.0,11.0,-999,-99.99,,,-99.99,,2013-07-27 06:43:00,
2013-07-27 01:52:00,86.0,-99.9,29.95,SW,220,6.0,9.0,-999,-99.99,,,-99.99,,2013-07-27 06:52:00,
2013-07-27 02:02:00,86.0,-99.9,29.95,SW,214,7.0,12.0,-999,-99.99,,,-99.99,,2013-07-27 07:02:00,
2013-07-27 02:12:00,86.0,-99.9,29.95,SW,217,6.0,10.0,-999,-99.99,,,-99.99,,2013-07-27 07:12:00,
2013-07-27 02:22:00,85.0,-99.9,29.95,North,-999,-999.0,-999.0,-999,-99.99,,,-99.99,,2013-07-27 07:22:00,
2013-07-27 02:34:00,85.0,-99.9,29.95,SW,215,8.0,12.0,-999,-99.99,,,-99.99,,2013-07-27 07:34:00,
2013-07-27 02:44:00,85.0,-99.9,29.94,SW,218,6.0,8.0,-999,-99.99,,,-99.99,,2013-07-27 07:44:00,
2013-07-27 02:53:00,85.0,-99.9,29.94,North,-999,-999.0,-999.0,-999,-99.99,,,-99.99,,2013-07-27 07:53:00,
2013-07-27 03:02:00,84.0,-99.9,29.94,SW,228,9.0,13.0,-999,-99.99,,,-99.99,,2013-07-27 08:02:00,
2013-07-27 03:12:00,84.0,-99.9,29.94,SW,233,10.0,16.0,-999,-99.99,,,-99.99,,2013-07-27 08:12:00,
2013-07-27 03:22:00,84.0,-99.9,29.94,SW,233,9.0,14.0,-999,-99.99,,,-99.99,,2013-07-27 08:22:00,
2013-07-27 03:32:00,84.0,-99.9,29.93,SW,230,9.0,13.0,-999,-99.99,,,-99.99,,2013-07-27 08:32:00,
2013-07-27 03:43:00,84.0,-99.9,29.93,WSW,237,9.0,13.0,-999,-99.99,,,-99.99,,2013-07-27 08:43:00,
2013-07-27 03:53:00,84.0,-99.9,29.93,North,-999,-999.0,-999.0,-999,-99.99,,,-99.99,,2013-07-27 08:53:00,
2013-07-27 04:02:00,84.0,-99.9,29.93,WSW,253,9.0,13.0,-999,-99.99,,,-99.99,,2013-07-27 09:02:00,
2013-07-27 04:12:00,84.0,-99.9,29.93,WSW,251,9.0,14.0,-999,-99.99,,,-99.99,,2013-07-27 09:12:00,
2013-07-27 04:22:00,84.0,-99.9,29.94,WSW,252,9.0,13.0,-999,-99.99,,,-99.99,,2013-07-27 09:22:00,
2013-07-27 04:33:00,84.0,-99.9,29.93,WSW,256,10.0,14.0,-999,-99.99,,,-99.99,,2013-07-27 09:33:00,
2013-07-27 04:44:00,84.0,-99.9,29.93,West,266,11.0,16.0,-999,-99.99,,,-99.99,,2013-07-27 09:44:00,
2013-07-27 04:52:00,84.0,-99.9,29.93,North,-999,-999.0,-999.0,-999,-99.99,,,-99.99,,2013-07-27 09:52:00,
2013-07-27 05:02:00,84.0,-99.9,29.94,West,263,10.0,15.0,-999,-99.99,,,-99.99,,2013-07-27 10:02:00,
2013-07-27 05:12:00,84.0,-99.9,29.93,West,262,9.0,13.0,-999,-99.99,,,-99.99,,2013-07-27 10:12:00,
2013-07-27 05:22:00,84.0,-99.9,29.93,WSW,257,9.0,14.0,-999,-99.99,,,-99.99,,2013-07-27 10:22:00,
2013-07-27 05:32:00,83.0,-99.9,29.93,West,259,9.0,16.0,-999,-99.99,,,-99.99,,2013-07-27 10:32:00,
2013-07-27 05:44:00,82.0,-99.9,29.94,WNW,284,9.0,12.0,-999,-99.99,,,-99.99,,2013-07-27 10:44:00,
2013-07-27 05:52:00,81.0,-99.9,29.94,North,-999,-999.0,-999.0,-999,-99.99,,,-99.99,,2013-07-27 10:52:00,
2013-07-27 06:02:00,81.0,-99.9,29.94,WNW,293,8.0,10.0,-999,-99.99,,,-99.99,,2013-07-27 11:02:00,
2013-07-27 06:12:00,81.0,-99.9,29.95,WNW,294,9.0,12.0,-999,-99.99,,,-99.99,,2013-07-27 11:12:00,
2013-07-27 06:22:00,80.0,-99.9,29.95,WNW,289,7.0,11.0,-999,-99.99,,,-99.99,,2013-07-27 11:22:00,
2013-07-27 06:32:00,80.0,-99.9,29.95,WNW,301,5.0,6.0,-999,-99.99,,,-99.99,,2013-07-27 11:32:00,
2013-07-27 06:44:00,80.0,-99.9,29.96,West,281,12.0,18.0,-999,-99.99,,,-99.99,,2013-07-27 11:44:00,
2013-07-27 06:53:00,79.0,-99.9,29.96,WNW,285,13.0,17.0,-999,-99.99,,,-99.99,,2013-07-27 11:53:00,
2013-07-27 07:03:00,76.0,-99.9,29.96,WNW,290,10.0,14.0,-999,-99.99,,,-99.99,,2013-07-27 12:03:00,
2013-07-27 07:13:00,77.0,-99.9,29.95,WNW,283,10.0,14.0,-999,-99.99,,,-99.99,,2013-07-27 12:13:00,
2013-07-27 07:23:00,78.0,-99.9,29.96,West,279,9.0,13.0,-999,-99.99,,,-99.99,,2013-07-27 12:23:00,
2013-07-27 07:33:00,79.0,-99.9,29.96,West,276,9.0,12.0,-999,-99.99,,,-99.99,,2013-07-27 12:33:00,
2013-07-27 07:43:00,80.0,-99.9,29.96,West,270,8.0,11.0,-999,-99.99,,,-99.99,,2013-07-27 12:43:00,
2013-07-27 07:52:00,81.0,-99.9,29.96,North,-999,-999.0,-999.0,-999,-99.99,,,-99.99,,2013-07-27 12:52:00,
2013-07-27 08:02:00,81.0,-99.9,29.96,West,269,9.0,13.0,-999,-99.99,,,-99.99,,2013-07-27 13:02:00,
2013-07-27 08:12:00,80.0,-99.9,29.96,West,268,8.0,11.0,-999,-99.99,,,-99.99,,2013-07-27 13:12:00,
2013-07-27 08:22:00,81.0,-99.9,29.96,WSW,256,4.0,7.0,-999,-99.99,,,-99.99,,2013-07-27 13:22:00,
2013-07-27 08:32:00,81.0,-99.9,29.96,West,265,6.0,9.0,-999,-99.99,,,-99.99,,2013-07-27 13:32:00,
2013-07-27 08:44:00,82.0,-99.9,29.96,West,272,2.0,3.0,-999,-99.99,,,-99.99,,2013-07-27 13:44:00,
2013-07-27 08:53:00,83.0,-99.9,29.96,North,-999,-999.0,-999.0,-999,-99.99,,,-99.99,,2013-07-27 13:53:00,
2013-07-27 09:02:00,83.0,-99.9,29.95,WNW,303,7.0,9.0,-999,-99.99,,,-99.99,,2013-07-27 14:02:00,
2013-07-27 09:12:00,83.0,-99.9,29.95,NW,308,5.0,7.0,-999,-99.99,,,-99.99,,2013-07-27 14:12:00,
2013-07-27 09:22:00,83.0,-99.9,29.95,WNW,296,4.0,5.0,-999,-99.99,,,-99.99,,2013-07-27 14:22:00,
2013-07-27 09:33:00,83.0,-99.9,29.95,WNW,287,4.0,5.0,-999,-99.99,,,-99.99,,2013-07-27 14:33:00,
2013-07-27 09:44:00,83.0,-99.9,29.95,WNW,292,5.0,7.0,-999,-99.99,,,-99.99,,2013-07-27 14:44:00,
2013-07-27 09:54:00,83.0,-99.9,29.95,North,-999,-999.0,-999.0,-999,-99.99,,,-99.99,,2013-07-27 14:54:00,
2013-07-27 10:02:00,83.0,-99.9,29.95,WNW,295,5.0,7.0,-999,-99.99,,,-99.99,,2013-07-27 15:02:00,
2013-07-27 10:12:00,83.0,-99.9,29.95,WNW,301,5.0,7.0,-999,-99.99,,,-99.99,,2013-07-27 15:12:00,
2013-07-27 10:22:00,83.0,-99.9,29.95,North,-999,-999.0,-999.0,-999,-99.99,,,-99.99,,2013-07-27 15:22:00,
2013-07-27 10:33:00,83.0,-99.9,29.95,WNW,303,4.0,6.0,-999,-99.99,,,-99.99,,2013-07-27 15:33:00,
2013-07-27 10:44:00,83.0,-99.9,29.95,WNW,289,4.0,6.0,-999,-99.99,,,-99.99,,2013-07-27 15:44:00,
2013-07-27 10:53:00,83.0,-99.9,29.95,North,-999,-999.0,-999.0,-999,-99.99,,,-99.99,,2013-07-27 15:53:00,
2013-07-27 11:02:00,82.0,-99.9,29.96,WSW,250,10.0,25.0,-999,-99.99,,,-99.99,,2013-07-27 16:02:00,
2013-07-27 11:12:00,77.0,-99.9,29.97,WNW,282,14.0,21.0,-999,-99.99,,,-99.99,,2013-07-27 16:12:00,
2013-07-27 11:23:00,76.0,-99.9,29.97,WNW,287,12.0,15.0,-999,-99.99,,,-99.99,,2013-07-27 16:23:00,
2013-07-27 11:33:00,75.0,-99.9,29.98,WNW,301,9.0,13.0,-999,-99.99,,,-99.99,,2013-07-27 16:33:00,
2013-07-27 11:43:00,74.0,-99.9,29.98,NNW,343,7.0,10.0,-999,-99.99,,,-99.99,,2013-07-27 16:43:00,
2013-07-27 11:54:00,74.0,-99.9,29.98,North,3,4.0,6.0,-999,-99.99,,,-99.99,,2013-07-27 16:54:00,
2013-07-27 12:13:00,74.0,-99.9,29.97,ESE,102,3.0,4.0,-999,-99.99,,,-99.99,,2013-07-27 17:13:00,
2013-07-27 12:23:00,75.0,-99.9,29.97,North,-999,-999.0,-999.0,-999,-99.99,,,-99.99,,2013-07-27 17:23:00,
2013-07-27 12:32:00,75.0,-99.9,29.96,East,90,5.0,6.0,-999,-99.99,,,-99.99,,2013-07-27 17:32:00,
2013-07-27 12:43:00,75.0,-99.9,29.96,North,-999,-999.0,-999.0,-999,-99.99,,,-99.99,,2013-07-27 17:43:00,
2013-07-27 12:54:00,76.0,-99.9,29.96,ESE,110,3.0,4.0,-999,-99.99,,,-99.99,,2013-07-27 17:54:00,
2013-07-27 13:03:00,76.0,-99.9,29.96,SE,124,4.0,5.0,-999,-99.99,,,-99.99,,2013-07-27 18:03:00,
2013-07-27 13:12:00,77.0,-99.9,29.95,ESE,112,5.0,6.0,-999,-99.99,,,-99.99,,2013-07-27 18:12:00,
2013-07-27 13:22:00,78.0,-99.9,29.95,North,-999,-999.0,-999.0,-999,-99.99,,,-99.99,,2013-07-27 18:22:00,
2013-07-27 13:33:00,78.0,-99.9,29.95,SE,142,6.0,8.0,-999,-99.99,,,-99.99,,2013-07-27 18:33:00,
2013-07-27 13:43:00,79.0,-99.9,29.95,ESE,116,5.0,6.0,-999,-99.99,,,-99.99,,2013-07-27 18:43:00,
2013-07-27 13:53:00,79.0,-99.9,29.94,North,-999,-999.0,-999.0,-999,-99.99,,,-99.99,,2013-07-27 18:53:00,
2013-07-27 14:02:00,79.0,-99.9,29.94,SE,144,4.0,5.0,-999,-99.99,,,-99.99,,2013-07-27 19:02:00,
2013-07-27 14:12:00,79.0,-99.9,29.94,SE,126,5.0,6.0,-999,-99.99,,,-99.99,,2013-07-27 19:12:00,
2013-07-27 14:23:00,79.0,-99.9,29.94,North,-999,-999.0,-999.0,-999,-99.99,,,-99.99,,2013-07-27 19:23:00,
2013-07-27 14:32:00,80.0,-99.9,29.94,South,177,6.0,7.0,-999,-99.99,,,-99.99,,2013-07-27 19:32:00,
2013-07-27 14:43:00,80.0,-99.9,29.94,SSE,168,5.0,7.0,-999,-99.99,,,-99.99,,2013-07-27 19:43:00,
2013-07-27 14:53:00,81.0,-99.9,29.94,SSE,161,6.0,8.0,-999,-99.99,,,-99.99,,2013-07-27 19:53:00,
2013-07-27 15:02:00,81.0,-99.9,29.94,SE,141,4.0,5.0,-999,-99.99,,,-99.99,,2013-07-27 20:02:00,
2013-07-27 15:12:00,81.0,-99.9,29.93,SE,134,4.0,6.0,-999,-99.99,,,-99.99,,2013-07-27 20:12:00,
2013-07-27 15:23:00,81.0,-99.9,29.92,ESE,115,5.0,6.0,-999,-99.99,,,-99.99,,2013-07-27 20:23:00,
2013-07-27 15:33:00,81.0,-99.9,29.92,ESE,120,5.0,6.0,-999,-99.99,,,-99.99,,2013-07-27 20:33:00,
2013-07-27 15:43:00,81.0,-99.9,29.92,SSE,157,5.0,7.0,-999,-99.99,,,-99.99,,2013-07-27 20:43:00,
2013-07-27 15:52:00,82.0,-99.9,29.91,North,-999,-999.0,-999.0,-999,-99.99,,,-99.99,,2013-07-27 20:52:00,
2013-07-27 16:03:00,82.0,-99.9,29.91,SSE,156,6.0,7.0,-999,-99.99,,,-99.99,,2013-07-27 21:03:00,
2013-07-27 16:12:00,82.0,-99.9,29.90,SSE,149,7.0,8.0,-999,-99.99,,,-99.99,,2013-07-27 21:12:00,
2013-07-27 16:23:00,82.0,-99.9,29.90,North,-999,-999.0,-999.0,-999,-99.99,,,-99.99,,2013-07-27 21:23:00,
2013-07-27 16:33:00,82.0,-99.9,29.90,SSE,152,9.0,11.0,-999,-99.99,,,-99.99,,2013-07-27 21:33:00,
2013-07-27 16:43:00,82.0,-99.9,29.90,North,-999,-999.0,-999.0,-999,-99.99,,,-99.99,,2013-07-27 21:43:00,
2013-07-27 16:53:00,83.0,-99.9,29.90,SSW,204,7.0,10.0,-999,-99.99,,,-99.99,,2013-07-27 21:53:00,
2013-07-27 17:02:00,80.0,-99.9,29.91,SW,236,14.0,23.0,-999,-99.99,,,-99.99,,2013-07-27 22:02:00,
2013-07-27 17:13:00,78.0,-99.9,29.90,North,-999,-999.0,-999.0,-999,-99.99,,,-99.99,,2013-07-27 22:13:00,
2013-07-27 17:22:00,76.0,-99.9,29.90,North,-999,-999.0,-999.0,-999,-99.99,,,-99.99,,2013-07-27 22:22:00,
2013-07-27 17:33:00,76.0,-99.9,29.91,WSW,245,8.0,12.0,-999,-99.99,,,-99.99,,2013-07-27 22:33:00,
2013-07-27 17:43:00,75.0,-99.9,29.91,SSE,164,6.0,8.0,-999,-99.99,,,-99.99,,2013-07-27 22:43:00,
2013-07-27 17:53:00,75.0,-99.9,29.90,North,-999,-999.0,-999.0,-999,-99.99,,,-99.99,,2013-07-27 22:53:00,
2013-07-27 18:02:00,75.0,-99.9,29.90,East,91,2.0,3.0,-999,-99.99,,,-99.99,,2013-07-27 23:02:00,
2013-07-27 18:12:00,75.0,-99.9,29.91,ESE,106,2.0,2.0,-999,-99.99,,,-99.99,,2013-07-27 23:12:00,
2013-07-27 18:22:00,76.0,-99.9,29.90,North,-999,-999.0,-999.0,-999,-99.99,,,-99.99,,2013-07-27 23:22:00,
2013-07-27 18:33:00,76.0,-99.9,29.90,East,100,4.0,5.0,-999,-99.99,,,-99.99,,2013-07-27 23:33:00,
2013-07-27 18:44:00,76.0,-99.9,29.91,East,100,3.0,5.0,-999,-99.99,,,-99.99,,2013-07-27 23:44:00,
2013-07-27 18:53:00,77.0,-99.9,29.90,North,-999,-999.0,-999.0,-999,-99.99,,,-99.99,,2013-07-27 23:53:00,
2013-07-27 19:02:00,77.0,-99.9,29.90,ESE,107,5.0,7.0,-999,-99.99,,,-99.99,,2013-07-28 00:02:00,
2013-07-27 19:12:00,77.0,-99.9,29.90,East,87,6.0,7.0,-999,-99.99,,,-99.99,,2013-07-28 00:12:00,
2013-07-27 19:23:00,77.0,-99.9,29.90,East,79,7.0,9.0,-999,-99.99,,,-99.99,,2013-07-28 00:23:00,
2013-07-27 19:32:00,77.0,-99.9,29.90,East,87,8.0,10.0,-999,-99.99,,,-99.99,,2013-07-28 00:32:00,
2013-07-27 19:44:00,77.0,-99.9,29.89,East,84,8.0,10.0,-999,-99.99,,,-99.99,,2013-07-28 00:44:00,
2013-07-27 19:53:00,77.0,-99.9,29.90,ENE,62,8.0,11.0,-999,-99.99,,,-99.99,,2013-07-28 00:53:00,
2013-07-27 20:02:00,77.0,-99.9,29.90,ENE,72,9.0,12.0,-999,-99.99,,,-99.99,,2013-07-28 01:02:00,
2013-07-27 20:12:00,77.0,-99.9,29.89,ESE,102,10.0,12.0,-999,-99.99,,,-99.99,,2013-07-28 01:12:00,
2013-07-27 20:23:00,78.0,-99.9,29.89,East,96,10.0,13.0,-999,-99.99,,,-99.99,,2013-07-28 01:23:00,
2013-07-27 20:32:00,78.0,-99.9,29.89,East,99,12.0,17.0,-999,-99.99,,,-99.99,,2013-07-28 01:32:00,
2013-07-27 20:43:00,78.0,-99.9,29.88,ESE,102,13.0,18.0,-999,-99.99,,,-99.99,,2013-07-28 01:43:00,
2013-07-27 20:53:00,79.0,-99.9,29.89,SE,139,15.0,19.0,-999,-99.99,,,-99.99,,2013-07-28 01:53:00,
2013-07-27 21:03:00,79.0,-99.9,29.89,SSE,154,16.0,22.0,-999,-99.99,,,-99.99,,2013-07-28 02:03:00,
2013-07-27 21:12:00,79.0,-99.9,29.89,SSE,159,15.0,18.0,-999,-99.99,,,-99.99,,2013-07-28 02:12:00,
2013-07-27 21:23:00,79.0,-99.9,29.90,SSE,162,13.0,15.0,-999,-99.99,,,-99.99,,2013-07-28 02:23:00,
2013-07-27 21:32:00,79.0,-99.9,29.91,South,182,12.0,15.0,-999,-99.99,,,-99.99,,2013-07-28 02:32:00,
2013-07-27 21:43:00,79.0,-99.9,29.90,SE,140,10.0,12.0,-999,-99.99,,,-99.99,,2013-07-28 02:43:00,
2013-07-27 21:53:00,78.0,-99.9,29.89,North,-999,-999.0,-999.0,-999,-99.99,,,-99.99,,2013-07-28 02:53:00,
2013-07-27 22:03:00,78.0,-99.9,29.89,ESE,114,8.0,9.0,-999,-99.99,,,-99.99,,2013-07-28 03:03:00,
2013-07-27 22:12:00,78.0,-99.9,29.90,ESE,116,9.0,12.0,-999,-99.99,,,-99.99,,2013-07-28 03:12:00,
2013-07-27 22:22:00,78.0,-99.9,29.91,ESE,108,7.0,10.0,-999,-99.99,,,-99.99,,2013-07-28 03:22:00,
2013-07-27 22:32:00,79.0,-99.9,29.91,East,94,5.0,9.0,-999,-99.99,,,-99.99,,2013-07-28 03:32:00,
2013-07-27 22:43:00,79.0,-99.9,29.90,South,179,9.0,14.0,-999,-99.99,,,-99.99,,2013-07-28 03:43:00,
2013-07-27 22:53:00,79.0,-99.9,29.89,SE,133,11.0,14.0,-999,-99.99,,,-99.99,,2013-07-28 03:53:00,
2013-07-27 23:02:00,81.0,-99.9,29.88,SSE,148,17.0,22.0,-999,-99.99,,,-99.99,,2013-07-28 04:02:00,
2013-07-27 23:12:00,82.0,-99.9,29.88,SW,217,12.0,20.0,-999,-99.99,,,-99.99,,2013-07-28 04:12:00,
2013-07-27 23:22:00,82.0,-99.9,29.88,North,-999,-999.0,-999.0,-999,-99.99,,,-99.99,,2013-07-28 04:22:00,
2013-07-27 23:32:00,82.0,-99.9,29.88,SW,224,12.0,19.0,-999,-99.99,,,-99.99,,2013-07-28 04:32:00,
2013-07-27 23:43:00,82.0,-99.9,29.88,SW,223,13.0,20.0,-999,-99.99,,,-99.99,,2013-07-28 04:43:00,
2013-07-27 23:53:00,82.0,-99.9,29.88,SW,222,12.0,17.0,-999,-99.99,,,-99.99,,2013-07-28 04:53:00,